Flag for Japan Weather past 2 weeks in Sendai, Japan

Now
48 °F

Passing clouds.


Feels Like: 44 °F
Forecast: 40 / 54 °F
Wind: 9 mph from Southeast

Location: Sendai Airport


UV Index: 5 (Moderate)

Visibility: N/A


Pressure: 30.04 "Hg

Humidity: 50%

Dew point: 30 °F

Location of SendaiLocation

Historic Weather in Sendai

°F

Sendai temperature yesterday

Maximum temperature yesterday: 55 °F (at 11:00 AM)
Minimum temperature yesterday: 39 °F (at 6:00 AM)
Average temperature yesterday: 52 °F

Past Weeks' High & Low Weather Summary

 TemperatureHumidityPressure
High70 °F (Apr 16, 11:46 AM)100% (Apr 3, 5:00 PM)30.12 "Hg (Apr 3, 5:00 PM)
Low34 °F (Apr 14, 6:00 AM)13% (Apr 16, 1:00 PM)29.24 "Hg (Apr 4, 1:00 PM)
Average52 °F51%29.87 "Hg
* Reported Apr 3 10:00 AM — Apr 18 10:00 AM, Sendai, Weather by CustomWeather, © 2014

Note: Actual official high and low records may vary slightly from our data, if they occured in-between our weather recording intervals... More about our weather records

Advertising

Historic Weather Conditions — Data for Previous 24 hours

 ConditionsComfort  
Time TempWeatherWind HumidityBarometerVisibility
10:00 AM
Apr 18
48 °FPassing clouds.9 mph50%30.04 "HgN/A
9:00 AM46 °FPassing clouds.6 mph53%30.07 "HgN/A
8:00 AM45 °FSunny.8 mph57%30.07 "Hg10 mi
7:00 AM45 °FPartly sunny.7 mph57%30.04 "HgN/A
6:00 AM45 °FSunny.6 mph61%30.04 "Hg10 mi
9:00 PM
Apr 17
48 °FClear.3 mph66%29.95 "Hg10 mi
8:00 PM50 °FClear.3 mph67%29.92 "Hg10 mi
7:00 PM52 °FClear.3 mph67%29.92 "Hg10 mi
6:00 PM54 °FSunny.5 mph63%29.89 "Hg10 mi
5:00 PM55 °FSunny.5 mph55%29.89 "Hg10 mi
4:00 PM55 °FPassing clouds.7 mph55%29.89 "HgN/A
3:00 PM55 °FScattered clouds.8 mph47%29.89 "HgN/A
2:00 PM55 °FSunny.8 mph44%29.89 "Hg10 mi
1:00 PM55 °FPassing clouds.9 mph47%29.89 "HgN/A
12:00 PM55 °FPassing clouds.13 mph38%29.92 "HgN/A
11:00 AM55 °FScattered clouds.9 mph41%29.95 "HgN/A
Weather by CustomWeather, © 2014

See weather overview